2016-02-03 00:03:05 r, 17.58m,0000000008Hz,0000056197c,0000000.122s, 006.4C,00002195
2016-02-03 00:13:04 r, 17.58m,0000000008Hz,0000055984c,0000000.121s, 006.4C,00002195
2016-02-03 00:23:04 r, 17.63m,0000000008Hz,0000058423c,0000000.127s, 006.4C,00002195
2016-02-03 00:33:04 r, 17.67m,0000000008Hz,0000061063c,0000000.133s, 006.4C,00002195
2016-02-03 00:43:04 r, 17.69m,0000000007Hz,0000062293c,0000000.135s, 006.4C,00002195
2016-02-03 00:53:04 r, 17.69m,0000000007Hz,0000062045c,0000000.135s, 006.1C,00002195
2016-02-03 01:03:04 r, 17.60m,0000000008Hz,0000057328c,0000000.124s, 006.1C,00002195
2016-02-03 01:13:04 r, 17.48m,0000000009Hz,0000050959c,0000000.111s, 006.1C,00002195
2016-02-03 01:23:04 r, 17.39m,0000000010Hz,0000046906c,0000000.102s, 006.1C,00002195
2016-02-03 01:33:04 r, 17.26m,0000000011Hz,0000041936c,0000000.091s, 006.1C,00002195
2016-02-03 01:43:04 r, 17.11m,0000000013Hz,0000036489c,0000000.079s, 006.1C,00002195
2016-02-03 01:53:04 r, 16.99m,0000000014Hz,0000032695c,0000000.071s, 006.4C,00002195
2016-02-03 02:03:05 r, 16.92m,0000000015Hz,0000030640c,0000000.066s, 006.4C,00002195
2016-02-03 02:13:04 r, 17.01m,0000000014Hz,0000033129c,0000000.072s, 006.4C,00002195
2016-02-03 02:23:04 r, 17.02m,0000000013Hz,0000033623c,0000000.073s, 006.4C,00002195
2016-02-03 02:33:05 r, 17.07m,0000000013Hz,0000035160c,0000000.076s, 006.4C,00002195
2016-02-03 02:43:04 r, 17.08m,0000000013Hz,0000035524c,0000000.077s, 006.4C,00002195
2016-02-03 02:53:04 r, 17.08m,0000000013Hz,0000035447c,0000000.077s, 006.4C,00002195
2016-02-03 03:03:06 r, 17.02m,0000000014Hz,0000033717c,0000000.073s, 006.4C,00002195
2016-02-03 03:13:04 r, 16.91m,0000000015Hz,0000030415c,0000000.066s, 006.4C,00002195
2016-02-03 03:23:04 r, 16.49m,0000000022Hz,0000020732c,0000000.045s, 006.4C,00002195
2016-02-03 03:33:04 r, 15.69m,0000000047Hz,0000009903c,0000000.021s, 006.4C,00002195
2016-02-03 03:43:04 r, 16.47m,0000000023Hz,0000020174c,0000000.044s, 006.7C,00002195
2016-02-03 03:53:04 r, 16.23m,0000000029Hz,0000016172c,0000000.035s, 006.7C,00002195
2016-02-03 04:03:04 r, 16.38m,0000000025Hz,0000018637c,0000000.040s, 007.0C,00002195
2016-02-03 04:13:04 r, 16.44m,0000000023Hz,0000019838c,0000000.043s, 007.0C,00002195
2016-02-03 04:23:04 r, 17.39m,0000000009Hz,0000047127c,0000000.102s, 007.0C,00002195
2016-02-03 04:33:05 r, 17.41m,0000000010Hz,0000047929c,0000000.104s, 006.7C,00002195
2016-02-03 04:43:04 r, 17.08m,0000000013Hz,0000035497c,0000000.077s, 006.7C,00002195
2016-02-03 04:53:04 r, 15.65m,0000000049Hz,0000009484c,0000000.021s, 006.4C,00002195
2016-02-03 05:03:04 r, 15.05m,0000000085Hz,0000005446c,0000000.012s, 006.7C,00002195
2016-02-03 05:13:04 r, 14.97m,0000000092Hz,0000005060c,0000000.011s, 006.7C,00002195
2016-02-03 05:23:04 r, 14.71m,0000000115Hz,0000003980c,0000000.009s, 007.0C,00002195
2016-02-03 05:33:04 r, 14.72m,0000000114Hz,0000004034c,0000000.009s, 007.0C,00002195
2016-02-03 05:43:05 r, 14.73m,0000000113Hz,0000004057c,0000000.009s, 007.4C,00002195
2016-02-03 05:53:04 r, 14.68m,0000000118Hz,0000003899c,0000000.008s, 007.4C,00002195
2016-02-03 06:03:04 r, 14.70m,0000000116Hz,0000003939c,0000000.009s, 007.4C,00002195
2016-02-03 06:13:05 r, 14.87m,0000000098Hz,0000004669c,0000000.010s, 007.4C,00002195
2016-02-03 06:23:04 r, 14.96m,0000000092Hz,0000005041c,0000000.011s, 007.4C,00002195
2016-02-03 06:33:04 r, 15.44m,0000000058Hz,0000007793c,0000000.017s, 007.7C,00002195
2016-02-03 06:43:04 r, 15.00m,0000000087Hz,0000005219c,0000000.011s, 007.7C,00002195
2016-02-03 06:53:04 r, 15.52m,0000000055Hz,0000008440c,0000000.018s, 007.4C,00002195
2016-02-03 07:03:04 r, 15.20m,0000000073Hz,0000006292c,0000000.014s, 007.7C,00002195
2016-02-03 07:13:04 r, 14.60m,0000000129Hz,0000000000c,0000000.000s, 007.7C,00002195
2016-02-03 07:23:04 r, 13.10m,0000000513Hz,0000000000c,0000000.000s, 007.7C,00002195
2016-02-03 07:33:04 r, 11.27m,0000002767Hz,0000000000c,0000000.000s, 007.7C,00002195
2016-02-03 07:43:04 r, 09.57m,0000013222Hz,0000000000c,0000000.000s, 007.4C,00002195
2016-02-03 07:53:04 r, 08.18m,0000047601Hz,0000000000c,0000000.000s, 007.4C,00002195
2016-02-03 08:03:06 r, 07.26m,0000111406Hz,0000000000c,0000000.000s, 007.4C,00002195
2016-02-03 08:13:04 r, 06.82m,0000167743Hz,0000000000c,0000000.000s, 007.4C,00002195
2016-02-03 08:23:04 r, 06.21m,0000294477Hz,0000000000c,0000000.000s, 007.4C,00002195
2016-02-03 08:33:05 r, 00.00m,0000541486Hz,0000000000c,0000000.000s, 007.7C,00002195
2016-02-03 08:43:04 r, 00.00m,0000561631Hz,0000000000c,0000000.000s, 007.4C,00002195
2016-02-03 08:53:04 r, 00.00m,0000561656Hz,0000000000c,0000000.000s, 007.7C,00002195
2016-02-03 09:03:05 r, 00.00m,0000561638Hz,0000000000c,0000000.000s, 008.0C,00002195
2016-02-03 09:13:04 r, 00.00m,0000561611Hz,0000000000c,0000000.000s, 008.0C,00002195
2016-02-03 09:23:04 r, 00.00m,0000561781Hz,0000000000c,0000000.000s, 008.3C,00002195
2016-02-03 09:33:04 r, 00.00m,0000561878Hz,0000000000c,0000000.000s, 009.0C,00002195
2016-02-03 09:43:06 r, 00.00m,0000561954Hz,0000000000c,0000000.000s, 009.9C,00002195
2016-02-03 09:53:04 r, 00.00m,0000562162Hz,0000000000c,0000000.000s, 009.9C,00002195
2016-02-03 10:03:04 r, 00.00m,0000562042Hz,0000000000c,0000000.000s, 010.6C,00002195
2016-02-03 10:13:05 r, 00.00m,0000562258Hz,0000000000c,0000000.000s, 010.9C,00002195
2016-02-03 10:23:04 r, 00.00m,0000562174Hz,0000000000c,0000000.000s, 010.9C,00002195
2016-02-03 10:33:04 r, 00.00m,0000562382Hz,0000000000c,0000000.000s, 011.9C,00002195
2016-02-03 10:43:05 r, 00.00m,0000562751Hz,0000000000c,0000000.000s, 014.5C,00002195
2016-02-03 10:53:04 r, 00.00m,0000562883Hz,0000000000c,0000000.000s, 015.4C,00002195
2016-02-03 11:03:04 r, 00.00m,0000562979Hz,0000000000c,0000000.000s, 016.1C,00002195
2016-02-03 11:13:04 r, 00.00m,0000563010Hz,0000000000c,0000000.000s, 016.4C,00002195
2016-02-03 11:23:04 r, 00.00m,0000563037Hz,0000000000c,0000000.000s, 016.1C,00002195
2016-02-03 11:33:04 r, 00.00m,0000563008Hz,0000000000c,0000000.000s, 015.4C,00002195
2016-02-03 11:43:06 r, 00.00m,0000562889Hz,0000000000c,0000000.000s, 014.8C,00002195
2016-02-03 11:53:04 r, 00.00m,0000562748Hz,0000000000c,0000000.000s, 014.5C,00002195
2016-02-03 12:03:04 r, 00.00m,0000562867Hz,0000000000c,0000000.000s, 014.8C,00002195
2016-02-03 12:13:05 r, 00.00m,0000562954Hz,0000000000c,0000000.000s, 015.4C,00002195
2016-02-03 12:23:04 r, 00.00m,0000563112Hz,0000000000c,0000000.000s, 016.4C,00002195
2016-02-03 12:33:04 r, 00.00m,0000563168Hz,0000000000c,0000000.000s, 017.0C,00002195
2016-02-03 12:43:05 r, 00.00m,0000563213Hz,0000000000c,0000000.000s, 017.7C,00002195
2016-02-03 12:53:04 r, 00.00m,0000563182Hz,0000000000c,0000000.000s, 018.0C,00002195
2016-02-03 13:03:04 r, 00.00m,0000563345Hz,0000000000c,0000000.000s, 019.0C,00002195
2016-02-03 13:13:04 r, 00.00m,0000563322Hz,0000000000c,0000000.000s, 019.6C,00002195
2016-02-03 13:23:06 r, 00.00m,0000563497Hz,0000000000c,0000000.000s, 019.9C,00002195
2016-02-03 13:33:04 r, 00.00m,0000563261Hz,0000000000c,0000000.000s, 019.0C,00002195
2016-02-03 13:43:06 r, 00.00m,0000563122Hz,0000000000c,0000000.000s, 017.7C,00002195
2016-02-03 13:53:04 r, 00.00m,0000563007Hz,0000000000c,0000000.000s, 016.7C,00002195
2016-02-03 14:03:04 r, 00.00m,0000563036Hz,0000000000c,0000000.000s, 016.1C,00002195
2016-02-03 14:13:06 r, 00.00m,0000562864Hz,0000000000c,0000000.000s, 015.4C,00002195
2016-02-03 14:23:04 r, 00.00m,0000562837Hz,0000000000c,0000000.000s, 014.8C,00002195
2016-02-03 14:33:04 r, 00.00m,0000562870Hz,0000000000c,0000000.000s, 015.1C,00002195
2016-02-03 14:43:04 r, 00.00m,0000562835Hz,0000000000c,0000000.000s, 015.4C,00002195
2016-02-03 14:53:04 r, 00.00m,0000562753Hz,0000000000c,0000000.000s, 014.5C,00002195
2016-02-03 15:03:04 r, 00.00m,0000562621Hz,0000000000c,0000000.000s, 013.5C,00002195
2016-02-03 15:13:04 r, 00.00m,0000562421Hz,0000000000c,0000000.000s, 013.2C,00002195
2016-02-03 15:23:04 r, 00.00m,0000562384Hz,0000000000c,0000000.000s, 012.8C,00002195
2016-02-03 15:33:04 r, 00.00m,0000562543Hz,0000000000c,0000000.000s, 013.2C,00002195
2016-02-03 15:43:04 r, 00.00m,0000562464Hz,0000000000c,0000000.000s, 012.8C,00002195
2016-02-03 15:53:06 r, 00.00m,0000562445Hz,0000000000c,0000000.000s, 012.8C,00002195
2016-02-03 16:03:04 r, 00.00m,0000562407Hz,0000000000c,0000000.000s, 012.5C,00002195
2016-02-03 16:13:04 r, 00.00m,0000562353Hz,0000000000c,0000000.000s, 012.2C,00002195
2016-02-03 16:23:05 r, 00.00m,0000562389Hz,0000000000c,0000000.000s, 011.9C,00002195
2016-02-03 16:33:04 r, 00.00m,0000562180Hz,0000000000c,0000000.000s, 011.9C,00002195
2016-02-03 16:43:04 r, 00.00m,0000562145Hz,0000000000c,0000000.000s, 011.6C,00002195
2016-02-03 16:53:04 r, 00.00m,0000440718Hz,0000000000c,0000000.000s, 011.6C,00002195
2016-02-03 17:03:04 r, 06.51m,0000221809Hz,0000000000c,0000000.000s, 011.2C,00002195
2016-02-03 17:13:04 r, 07.15m,0000122665Hz,0000000000c,0000000.000s, 011.6C,00002195
2016-02-03 17:23:04 r, 07.93m,0000059589Hz,0000000000c,0000000.000s, 011.6C,00002195
2016-02-03 17:33:04 r, 09.03m,0000021821Hz,0000000000c,0000000.000s, 011.6C,00002195
2016-02-03 17:43:04 r, 10.47m,0000005751Hz,0000000000c,0000000.000s, 011.9C,00002195
2016-02-03 17:53:04 r, 12.25m,0000001121Hz,0000000000c,0000000.000s, 011.9C,00002195
2016-02-03 18:03:05 r, 13.86m,0000000254Hz,0000000000c,0000000.000s, 012.2C,00002195
2016-02-03 18:13:04 r, 14.67m,0000000120Hz,0000003849c,0000000.008s, 012.2C,00002195
2016-02-03 18:23:05 r, 14.86m,0000000100Hz,0000004600c,0000000.010s, 012.2C,00002195
2016-02-03 18:33:04 r, 14.85m,0000000101Hz,0000004559c,0000000.010s, 012.2C,00002195
2016-02-03 18:43:04 r, 14.77m,0000000109Hz,0000004248c,0000000.009s, 012.2C,00002195
2016-02-03 18:53:05 r, 14.75m,0000000110Hz,0000004147c,0000000.009s, 012.2C,00002195
2016-02-03 19:03:04 r, 14.92m,0000000095Hz,0000004844c,0000000.011s, 012.2C,00002195
2016-02-03 19:13:04 r, 15.04m,0000000086Hz,0000005383c,0000000.012s, 012.5C,00002195
2016-02-03 19:23:04 r, 15.20m,0000000073Hz,0000006279c,0000000.014s, 012.5C,00002195
2016-02-03 19:33:04 r, 14.99m,0000000087Hz,0000005181c,0000000.011s, 012.5C,00002195
2016-02-03 19:43:04 r, 15.07m,0000000083Hz,0000005596c,0000000.012s, 012.5C,00002195
2016-02-03 19:53:06 r, 15.12m,0000000080Hz,0000005812c,0000000.013s, 012.5C,00002195
2016-02-03 20:03:04 r, 15.31m,0000000066Hz,0000006930c,0000000.015s, 012.8C,00002195
2016-02-03 20:13:04 r, 15.65m,0000000048Hz,0000009480c,0000000.021s, 012.8C,00002195
2016-02-03 20:23:04 r, 15.79m,0000000042Hz,0000010857c,0000000.024s, 012.8C,00002195
2016-02-03 20:33:04 r, 15.95m,0000000036Hz,0000012497c,0000000.027s, 012.5C,00002195
2016-02-03 20:43:06 r, 15.94m,0000000037Hz,0000012398c,0000000.027s, 012.5C,00002195
2016-02-03 20:53:04 r, 15.83m,0000000041Hz,0000011147c,0000000.024s, 012.2C,00002195
2016-02-03 21:03:04 r, 15.71m,0000000046Hz,0000010083c,0000000.022s, 011.9C,00002195
2016-02-03 21:13:04 r, 15.63m,0000000049Hz,0000009320c,0000000.020s, 011.9C,00002195
2016-02-03 21:23:05 r, 15.68m,0000000047Hz,0000009739c,0000000.021s, 011.6C,00002195
2016-02-03 21:33:04 r, 15.94m,0000000037Hz,0000012376c,0000000.027s, 011.6C,00002195
2016-02-03 21:43:05 r, 16.37m,0000000024Hz,0000018509c,0000000.040s, 011.2C,00002195
2016-02-03 21:53:04 r, 16.29m,0000000027Hz,0000017213c,0000000.037s, 010.9C,00002195
2016-02-03 22:03:04 r, 16.04m,0000000035Hz,0000013505c,0000000.029s, 010.9C,00002195
2016-02-03 22:13:04 r, 15.98m,0000000036Hz,0000012814c,0000000.028s, 010.9C,00002195
2016-02-03 22:23:06 r, 16.10m,0000000033Hz,0000014345c,0000000.031s, 010.6C,00002195
2016-02-03 22:33:04 r, 16.13m,0000000031Hz,0000014781c,0000000.032s, 010.6C,00002195
2016-02-03 22:43:06 r, 16.06m,0000000034Hz,0000013776c,0000000.030s, 010.6C,00002195
2016-02-03 22:53:04 r, 15.74m,0000000045Hz,0000010349c,0000000.022s, 010.6C,00002195
2016-02-03 23:03:04 r, 15.54m,0000000053Hz,0000008616c,0000000.019s, 010.6C,00002195
2016-02-03 23:13:04 r, 15.44m,0000000059Hz,0000007776c,0000000.017s, 010.6C,00002195
2016-02-03 23:23:05 r, 15.33m,0000000064Hz,0000007095c,0000000.015s, 010.6C,00002195
2016-02-03 23:33:04 r, 15.27m,0000000068Hz,0000006701c,0000000.015s, 010.6C,00002195
2016-02-03 23:43:04 r, 15.34m,0000000064Hz,0000007126c,0000000.015s, 010.6C,00002195
2016-02-03 23:53:04 r, 15.34m,0000000065Hz,0000007131c,0000000.015s, 010.6C,00002195
